• în România
  • Lista ţărilor
  • Pe 7 zile
  • Temperatura apei
  • Hartă satelitară
  • Meteo pe hartă
  • Widget-uri
  • user-avatar
    Intrare

    Meteo pe oră la Saurimo

    Astăzi, 23 Aprilie, Luni

    Timp Temperatura Precipitaţii Vânt Presiune Umiditate
    00:00 +19°C° 0 mm 0 m/s 671 mmHg 81%
    01:00 +18°C° 0 mm 0 m/s 670 mmHg 81%
    02:00 +20°C° 0 mm 1 m/s 670 mmHg 83%
    03:00 +19°C° 0 mm 1 m/s 670 mmHg 84%
    04:00 +19°C° 0 mm 1 m/s 670 mmHg 86%
    05:00 +19°C° 0 mm 1 m/s 671 mmHg 83%
    06:00 +20°C° 0 mm 1 m/s 671 mmHg 81%
    07:00 +19°C° 0 mm 0 m/s 672 mmHg 79%
    08:00 +23°C° 0 mm 1 m/s 672 mmHg 70%
    09:00 +26°C° 0 mm 1 m/s 673 mmHg 62%
    10:00 +28°C° 0 mm 1 m/s 673 mmHg 53%
    11:00 +29°C° 0 mm 2 m/s 673 mmHg 50%
    12:00 +30°C° 0 mm 2 m/s 672 mmHg 48%
    13:00 +30°C° 0 mm 2 m/s 672 mmHg 45%
    14:00 +30°C° 0 mm 2 m/s 671 mmHg 48%
    15:00 +30°C° 0 mm 2 m/s 671 mmHg 51%
    16:00 +30°C° 0 mm 1 m/s 670 mmHg 54%
    17:00 +27°C° 0 mm 1 m/s 670 mmHg 59%
    18:00 +25°C° 0 mm 1 m/s 670 mmHg 64%
    19:00 +23°C° 0 mm 1 m/s 670 mmHg 69%
    20:00 +22°C° 0 mm 1 m/s 670 mmHg 70%
    21:00 +22°C° 0 mm 1 m/s 671 mmHg 72%
    22:00 +19°C° 0 mm 0 m/s 671 mmHg 73%
    23:00 +21°C° 0 mm 1 m/s 671 mmHg 74%

    Mâine, 24 Aprilie, Marţi

    Timp Temperatura Precipitaţii Vânt Presiune Umiditate
    00:00 +21°C° 0 mm 1 m/s 671 mmHg 75%
    01:00 +20°C° 0 mm 1 m/s 671 mmHg 76%
    02:00 +20°C° 0 mm 1 m/s 670 mmHg 77%
    03:00 +20°C° 0 mm 1 m/s 670 mmHg 78%
    04:00 +19°C° 0 mm 1 m/s 670 mmHg 79%
    05:00 +20°C° 0 mm 1 m/s 671 mmHg 78%
    06:00 +20°C° 0 mm 1 m/s 671 mmHg 77%
    07:00 +20°C° 0 mm 2 m/s 672 mmHg 75%
    08:00 +23°C° 0 mm 2 m/s 672 mmHg 68%
    09:00 +26°C° 0 mm 3 m/s 673 mmHg 61%
    10:00 +28°C° 0 mm 3 m/s 674 mmHg 53%
    11:00 +29°C° 0 mm 3 m/s 673 mmHg 50%
    12:00 +30°C° 0 mm 3 m/s 673 mmHg 48%
    13:00 +31°C° 0 mm 2 m/s 672 mmHg 45%
    14:00 +31°C° 0 mm 2 m/s 672 mmHg 47%
    15:00 +30°C° 0 mm 2 m/s 671 mmHg 50%
    16:00 +30°C° 0 mm 1 m/s 671 mmHg 52%
    17:00 +28°C° 0 mm 1 m/s 671 mmHg 57%
    18:00 +26°C° 0 mm 1 m/s 671 mmHg 61%
    19:00 +24°C° 0 mm 1 m/s 671 mmHg 65%
    20:00 +23°C° 0 mm 1 m/s 671 mmHg 66%
    21:00 +23°C° 0 mm 1 m/s 671 mmHg 67%
    22:00 +22°C° 0 mm 1 m/s 671 mmHg 68%
    23:00 +22°C° 0 mm 1 m/s 671 mmHg 70%

    Poimâine, 25 Aprilie, Miercuri

    Timp Temperatura Precipitaţii Vânt Presiune Umiditate
    00:00 +21°C° 0 mm 1 m/s 671 mmHg 71%
    01:00 +21°C° 0 mm 1 m/s 670 mmHg 72%
    02:00 +20°C° 0 mm 1 m/s 670 mmHg 73%
    03:00 +20°C° 0 mm 1 m/s 670 mmHg 74%
    04:00 +18°C° 0 mm 2 m/s 670 mmHg 75%
    05:00 +19°C° 0 mm 2 m/s 670 mmHg 74%
    06:00 +20°C° 0 mm 2 m/s 671 mmHg 74%
    07:00 +20°C° 0 mm 2 m/s 672 mmHg 73%
    08:00 +24°C° 0 mm 3 m/s 672 mmHg 66%
    09:00 +26°C° 0 mm 3 m/s 673 mmHg 58%
    10:00 +28°C° 0 mm 3 m/s 674 mmHg 51%
    11:00 +29°C° 0 mm 3 m/s 673 mmHg 48%
    12:00 +30°C° 0 mm 3 m/s 672 mmHg 45%
    13:00 +31°C° 0 mm 2 m/s 672 mmHg 42%
    14:00 +30°C° 0 mm 2 m/s 671 mmHg 46%
    15:00 +29°C° 0 mm 2 m/s 671 mmHg 50%
    16:00 +29°C° 0 mm 1 m/s 670 mmHg 53%
    17:00 +28°C° 0 mm 1 m/s 670 mmHg 55%
    18:00 +26°C° 0 mm 1 m/s 671 mmHg 57%
    19:00 +25°C° 0 mm 1 m/s 671 mmHg 59%
    20:00 +25°C° 0 mm 1 m/s 671 mmHg 59%
    21:00 +25°C° 0 mm 1 m/s 672 mmHg 60%
    22:00 +24°C° 0 mm 1 m/s 672 mmHg 60%
    23:00 +24°C° 0 mm 1 m/s 671 mmHg 61%

    26 Aprilie, Joi

    Timp Temperatura Precipitaţii Vânt Presiune Umiditate
    00:00 +21°C° 0 mm 0 m/s 671 mmHg 62%
    01:00 +21°C° 0 mm 0 m/s 671 mmHg 63%
    02:00 +23°C° 0 mm 1 m/s 671 mmHg 64%
    03:00 +22°C° 0 mm 1 m/s 670 mmHg 64%
    04:00 +22°C° 0 mm 1 m/s 670 mmHg 65%
    05:00 +22°C° 0 mm 1 m/s 671 mmHg 67%
    06:00 +22°C° 0 mm 1 m/s 671 mmHg 69%
    07:00 +22°C° 0 mm 1 m/s 672 mmHg 71%
    08:00 +24°C° 0 mm 2 m/s 672 mmHg 63%
    09:00 +27°C° 0 mm 2 m/s 673 mmHg 55%
    10:00 +29°C° 0 mm 2 m/s 673 mmHg 46%
    11:00 +29°C° 0 mm 2 m/s 673 mmHg 44%
    12:00 +30°C° 0 mm 2 m/s 672 mmHg 42%
    13:00 +30°C° 0 mm 2 m/s 671 mmHg 40%
    14:00 +30°C° 0 mm 2 m/s 671 mmHg 43%
    15:00 +30°C° 0 mm 2 m/s 670 mmHg 46%
    16:00 +29°C° 0 mm 1 m/s 670 mmHg 49%
    17:00 +27°C° 0 mm 1 m/s 670 mmHg 53%
    18:00 +26°C° 0 mm 1 m/s 670 mmHg 56%
    19:00 +24°C° 0 mm 1 m/s 670 mmHg 60%
    20:00 +23°C° 0 mm 1 m/s 671 mmHg 61%
    21:00 +23°C° 0 mm 1 m/s 671 mmHg 63%
    22:00 +22°C° 0 mm 1 m/s 671 mmHg 64%
    23:00 +21°C° 0 mm 1 m/s 671 mmHg 65%

    27 Aprilie, Vineri

    Timp Temperatura Precipitaţii Vânt Presiune Umiditate
    00:00 +21°C° 0 mm 1 m/s 670 mmHg 66%
    01:00 +20°C° 0 mm 1 m/s 670 mmHg 67%
    02:00 +20°C° 0 mm 1 m/s 670 mmHg 69%
    03:00 +19°C° 0 mm 1 m/s 670 mmHg 70%
    04:00 +18°C° 0 mm 2 m/s 670 mmHg 71%
    05:00 +18°C° 0 mm 2 m/s 670 mmHg 70%
    06:00 +19°C° 0 mm 2 m/s 671 mmHg 69%
    07:00 +19°C° 0 mm 2 m/s 671 mmHg 67%
    08:00 +22°C° 0 mm 3 m/s 672 mmHg 61%
    09:00 +25°C° 0 mm 3 m/s 673 mmHg 54%
    10:00 +28°C° 0 mm 3 m/s 673 mmHg 47%
    11:00 +29°C° 0 mm 3 m/s 672 mmHg 44%
    12:00 +29°C° 0 mm 2 m/s 672 mmHg 40%
    13:00 +30°C° 0 mm 2 m/s 671 mmHg 37%
    14:00 +30°C° 0 mm 2 m/s 671 mmHg 40%
    15:00 +30°C° 0 mm 2 m/s 671 mmHg 43%
    16:00 +29°C° 0 mm 1 m/s 670 mmHg 46%
    17:00 +27°C° 0 mm 1 m/s 670 mmHg 51%
    18:00 +25°C° 0 mm 1 m/s 670 mmHg 55%
    19:00 +22°C° 0 mm 1 m/s 670 mmHg 59%
    20:00 +22°C° 0 mm 1 m/s 670 mmHg 60%
    21:00 +21°C° 0 mm 1 m/s 671 mmHg 61%
    22:00 +21°C° 0 mm 1 m/s 671 mmHg 62%
    23:00 +20°C° 0 mm 1 m/s 670 mmHg 63%

    28 Aprilie, Sâmbătă

    Timp Temperatura Precipitaţii Vânt Presiune Umiditate
    00:00 +20°C° 0 mm 1 m/s 670 mmHg 64%
    01:00 +19°C° 0 mm 1 m/s 670 mmHg 65%
    02:00 +19°C° 0 mm 1 m/s 670 mmHg 66%
    03:00 +17°C° 0 mm 2 m/s 670 mmHg 67%
    04:00 +17°C° 0 mm 2 m/s 670 mmHg 68%
    05:00 +18°C° 0 mm 2 m/s 671 mmHg 68%
    06:00 +18°C° 0 mm 2 m/s 671 mmHg 68%
    07:00 +19°C° 0 mm 2 m/s 672 mmHg 68%
    08:00 +21°C° 0 mm 2 m/s 672 mmHg 62%
    09:00 +25°C° 0 mm 3 m/s 673 mmHg 55%
    10:00 +28°C° 0 mm 3 m/s 673 mmHg 48%
    11:00 +29°C° 0 mm 3 m/s 673 mmHg 45%
    12:00 +30°C° 0 mm 2 m/s 672 mmHg 42%
    13:00 +31°C° 0 mm 2 m/s 672 mmHg 39%
    14:00 +30°C° 0 mm 2 m/s 671 mmHg 41%
    15:00 +30°C° 0 mm 2 m/s 671 mmHg 44%
    16:00 +29°C° 0 mm 1 m/s 671 mmHg 47%
    17:00 +27°C° 0 mm 1 m/s 671 mmHg 52%
    18:00 +25°C° 0 mm 1 m/s 671 mmHg 57%
    19:00 +23°C° 0 mm 1 m/s 671 mmHg 62%
    20:00 +22°C° 0 mm 1 m/s 671 mmHg 63%
    21:00 +22°C° 0 mm 1 m/s 671 mmHg 64%
    22:00 +21°C° 0 mm 1 m/s 671 mmHg 65%
    23:00 +21°C° 0 mm 1 m/s 671 mmHg 65%
    Arată mai mult